FW1197 Weather Reports


time (UTC)temp
C
wind
direction
speed
KPH
gust
KPH
rain 1hr
cm
rain 24hr
cm
rain mn
cm
humidity
%
barometer
mb
20260507103604 17 334 4.8 14.5 0.00 0.13 0.10 74 1016.6
20260507102745 18 323 4.8 14.5 0.00 0.13 0.10 73 1016.8
20260507101804 17 340 4.8 9.7 0.00 0.13 0.10 74 1017.0
20260507100903 17 359 1.6 9.7 0.00 0.13 0.10 73 1017.2
20260507100004 17 337 4.8 14.5 0.00 0.13 0.10 75 1017.0
20260507095404 16 332 6.4 14.5 0.00 0.13 0.10 77 1016.9
20260507094504 16 324 4.8 14.5 0.00 0.13 0.10 77 1017.0
20260507093605 16 324 6.4 11.3 0.00 0.13 0.10 79 1017.0
20260507092703 16 322 4.8 11.3 0.00 0.13 0.10 78 1017.0
20260507091803 16 311 4.8 12.9 0.00 0.13 0.10 79 1016.9
20260507090925 16 330 6.4 12.9 0.00 0.13 0.10 79 1016.8
20260507090027 16 310 4.8 12.9 0.00 0.13 0.10 78 1016.7
20260507085430 16 298 6.4 12.9 0.00 0.13 0.10 79 1016.8
20260507084504 16 330 4.8 12.9 0.00 0.13 0.10 79 1016.8
20260507083603 15 333 4.8 19.3 0.00 0.13 0.10 80 1016.7
20260507082703 15 336 3.2 11.3 0.00 0.13 0.10 79 1016.8
20260507081805 15 348 4.8 14.5 0.00 0.13 0.10 81 1016.8
20260507080904 15 345 3.2 9.7 0.00 0.13 0.10 78 1016.6
20260507080005 15 25 3.2 8.0 0.00 0.13 0.10 80 1017.0
20260507075403 16 356 3.2 6.4 0.00 0.13 0.10 79 1017.0
20260507074503 16 75 1.6 6.4 0.00 0.13 0.10 79 1016.8
20260507073603 16 339 1.6 4.8 0.00 0.13 0.10 79 1017.0
20260507072703 15 111 3.2 8.0 0.00 0.13 0.10 78 1017.0
20260507071803 15 163 3.2 8.0 0.00 0.13 0.10 78 1016.9
20260507070903 14 253 1.6 4.8 0.00 0.13 0.10 82 1017.4
20260507070009 14 241 1.6 6.4 0.00 0.13 0.10 84 1017.4
20260507065403 14 189 1.6 4.8 0.00 0.13 0.10 82 1017.1
20260507064503 14 129 3.2 8.0 0.00 0.13 0.10 83 1016.9
20260507063625 14 134 4.8 8.0 0.00 0.13 0.10 82 1016.8
20260507062703 15 121 4.8 9.7 0.00 0.15 0.10 82 1016.8
20260507061803 14 115 4.8 8.0 0.00 0.15 0.10 82 1016.6
20260507060903 14 111 3.2 8.0 0.00 0.15 0.10 84 1016.8
20260507060003 13 125 4.8 8.0 0.00 0.15 0.10 85 1016.4
20260507055403 13 125 4.8 9.7 0.00 0.15 0.10 85 1016.6
20260507054506 13 111 4.8 9.7 0.00 0.15 0.10 87 1016.6
20260507053604 12 102 4.8 9.7 0.00 0.15 0.10 89 1016.7
20260507052729 12 97 6.4 11.3 0.00 0.15 0.10 89 1016.5
20260507051805 12 97 8.0 12.9 0.00 0.15 0.10 90 1016.4
20260507050907 12 95 8.0 9.7 0.00 0.18 0.10 91 1016.6
20260507050006 12 103 6.4 14.5 0.00 0.18 0.10 92 1016.4
20260507045404 12 109 8.0 14.5 0.00 0.18 0.10 93 1016.5
20260507044505 12 116 8.0 14.5 0.00 0.18 0.10 93 1016.4
20260507043605 12 113 8.0 14.5 0.03 0.20 0.10 94 1016.2
20260507042704 11 117 9.7 12.9 0.03 0.20 0.10 94 1016.2
20260507041805 11 115 8.0 17.7 0.03 0.20 0.10 94 1016.3
20260507040911 12 121 8.0 16.1 0.03 0.20 0.10 94 1016.2
20260507040004 12 116 8.0 14.5 0.05 0.20 0.10 94 1016.2
20260507035404 12 119 6.4 11.3 0.05 0.20 0.10 94 1016.4
20260507034505 12 120 6.4 12.9 0.05 0.20 0.10 93 1016.2
20260507033604 12 118 8.0 14.5 0.05 0.18 0.10 93 1016.3
20260507032704 12 103 9.7 17.7 0.05 0.18 0.10 93 1016.0
20260507031806 12 109 8.0 14.5 0.05 0.18 0.10 93 1016.0
20260507030906 12 115 9.7 16.1 0.05 0.18 0.08 92 1016.1
20260507030005 12 98 11.3 16.1 0.03 0.18 0.08 92 1015.9
20260507025426 12 100 9.7 16.1 0.03 0.15 0.05 91 1016.2
20260507024525 11 107 8.0 14.5 0.00 0.15 0.05 91 1016.2
20260507023607 12 113 8.0 16.1 0.03 0.15 0.05 90 1016.3
20260507022704 12 137 6.4 16.1 0.03 0.15 0.05 90 1016.2
20260507021805 12 128 4.8 8.0 0.03 0.15 0.05 90 1016.1
20260507020905 12 115 6.4 14.5 0.03 0.15 0.05 89 1016.2
20260507020004 12 112 8.0 14.5 0.03 0.15 0.05 88 1016.2
20260507015405 12 106 8.0 17.7 0.03 0.13 0.03 88 1015.9
20260507014525 12 99 9.7 17.7 0.03 0.13 0.03 86 1016.0
20260507013607 12 110 8.0 14.5 0.00 0.13 0.03 85 1015.9
20260507012704 12 109 6.4 16.1 0.00 0.13 0.03 84 1016.0
20260507011825 12 100 4.8 14.5 0.00 0.13 0.03 87 1015.9
20260507010904 12 97 8.0 16.1 0.00 0.13 0.03 87 1015.9
20260507010008 12 90 8.0 16.1 0.00 0.10 0.00 89 1016.1
20260507005425 12 91 8.0 16.1 0.00 0.10 0.00 90 1016.2
20260507004505 12 115 8.0 19.3 0.00 0.10 0.00 92 1016.1
20260507003605 12 105 8.0 19.3 0.00 0.10 0.00 93 1016.2
20260507002704 12 106 8.0 17.7 0.00 0.10 0.00 94 1016.3
20260507001804 11 92 8.0 14.5 0.00 0.10 0.00 94 1016.1
20260507000904 11 110 9.7 19.3 0.00 0.10 0.00 94 1016.1
20260507000004 11 116 9.7 19.3 0.00 0.10 0.00 94 1016.2
20260506235404 11 120 9.7 22.5 0.00 0.10 0.00 93 1016.3
20260506234505 11 130 16.1 30.6 0.00 0.10 0.00 92 1016.4
20260506233604 12 132 17.7 30.6 0.00 0.10 0.00 90 1016.5
20260506232704 12 129 17.7 29.0 0.00 0.10 0.00 90 1016.5
20260506231805 12 132 16.1 33.8 0.00 0.10 0.00 89 1016.5
20260506230926 12 131 17.7 35.4 0.00 0.10 0.00 88 1016.4
20260506230020 12 131 16.1 33.8 0.00 0.10 0.00 85 1016.6
20260506225404 12 134 16.1 32.2 0.00 0.10 0.00 84 1016.4
20260506224504 12 136 19.3 30.6 0.00 0.10 0.00 83 1016.5
20260506223604 13 139 17.7 27.4 0.00 0.10 0.00 82 1016.4
20260506222705 13 134 17.7 27.4 0.00 0.10 0.00 81 1016.3
20260506221804 13 130 17.7 27.4 0.00 0.10 0.00 81 1016.5
20260506220904 13 131 17.7 29.0 0.00 0.10 0.00 82 1016.5
20260506220005 13 132 19.3 27.4 0.00 0.10 0.00 82 1016.5
20260506215411 13 135 20.9 33.8 0.00 0.10 0.10 80 1016.5
20260506214525 13 133 14.5 24.1 0.00 0.10 0.10 76 1016.7
20260506213604 14 126 12.9 25.7 0.00 0.10 0.10 74 1016.8
20260506212725 14 126 14.5 25.7 0.00 0.10 0.10 74 1016.6
20260506211807 13 120 14.5 25.7 0.00 0.10 0.10 79 1016.4
20260506210926 13 118 16.1 25.7 0.00 0.10 0.10 80 1016.5
20260506210025 13 121 17.7 27.4 0.00 0.10 0.10 81 1016.5
20260506205405 13 121 19.3 27.4 0.03 0.10 0.10 82 1016.6
20260506204504 13 120 16.1 25.7 0.03 0.10 0.10 84 1016.6
20260506203604 13 128 14.5 25.7 0.03 0.10 0.10 85 1016.5
20260506202704 13 131 16.1 25.7 0.03 0.10 0.10 84 1016.8
20260506201826 13 128 16.1 27.4 0.03 0.10 0.10 83 1016.9
20260506200905 13 135 14.5 24.1 0.03 0.10 0.10 83 1016.9
20260506200004 13 134 12.9 27.4 0.00 0.10 0.10 82 1016.9
20260506195405 13 135 14.5 27.4 0.00 0.08 0.08 82 1016.8
20260506194504 13 132 14.5 24.1 0.00 0.08 0.08 83 1016.9
20260506193604 13 133 16.1 25.7 0.00 0.08 0.08 83 1016.9
20260506192704 13 134 14.5 24.1 0.00 0.08 0.08 84 1016.8
20260506191805 13 131 12.9 24.1 0.00 0.08 0.08 84 1016.6
20260506190907 13 139 14.5 24.1 0.00 0.08 0.08 84 1016.7
20260506190004 13 132 14.5 22.5 0.00 0.08 0.08 83 1016.5
20260506185404 13 132 12.9 24.1 0.00 0.08 0.08 84 1016.7
20260506184504 14 133 12.9 24.1 0.00 0.08 0.08 85 1016.3
20260506183607 14 131 12.9 20.9 0.00 0.08 0.08 84 1016.5
20260506182704 14 132 9.7 14.5 0.00 0.08 0.08 85 1016.4
20260506181804 14 127 9.7 16.1 0.00 0.08 0.08 85 1016.3
20260506180904 14 146 8.0 17.7 0.00 0.08 0.08 84 1016.4
20260506180005 14 146 9.7 17.7 0.00 0.08 0.08 84 1016.4
20260506175404 14 144 9.7 16.1 0.00 0.08 0.08 84 1016.3
20260506174504 14 146 11.3 20.9 0.00 0.08 0.08 83 1016.3
20260506173604 14 159 11.3 20.9 0.00 0.08 0.08 81 1016.2
20260506172704 14 147 12.9 20.9 0.00 0.08 0.08 81 1016.3
20260506171806 14 159 16.1 27.4 0.00 0.08 0.08 81 1016.1
20260506170904 14 165 11.3 24.1 0.00 0.08 0.08 81 1016.3
20260506170004 15 166 11.3 19.3 0.00 0.08 0.08 81 1016.2
20260506165405 15 163 12.9 25.7 0.00 0.08 0.08 80 1016.4
20260506164506 15 164 11.3 24.1 0.00 0.08 0.08 81 1016.4
20260506163604 15 157 11.3 25.7 0.00 0.08 0.08 82 1016.5
20260506162704 15 153 16.1 27.4 0.00 0.08 0.08 81 1016.3
20260506161803 15 152 14.5 29.0 0.00 0.08 0.08 79 1016.2
20260506160904 15 157 17.7 27.4 0.00 0.08 0.08 76 1016.4
20260506160007 15 159 14.5 25.7 0.00 0.08 0.08 77 1016.4
20260506155446 15 155 12.9 24.1 0.00 0.08 0.08 78 1016.4
20260506154504 15 162 14.5 22.5 0.00 0.08 0.08 77 1016.5
20260506153603 15 163 12.9 20.9 0.00 0.08 0.08 76 1016.6
20260506152703 16 170 11.3 24.1 0.00 0.08 0.08 76 1016.2
20260506151803 16 156 14.5 27.4 0.00 0.08 0.08 75 1016.4
20260506150904 15 158 12.9 27.4 0.00 0.08 0.08 76 1016.3
20260506150024 15 155 12.9 24.1 0.00 0.08 0.08 78 1016.2
20260506145403 15 148 14.5 24.1 0.00 0.08 0.08 78 1016.5
20260506144504 15 157 14.5 24.1 0.00 0.08 0.08 74 1016.4
20260506143603 15 161 12.9 27.4 0.00 0.08 0.08 75 1016.6
20260506142746 15 177 12.9 25.7 0.00 0.08 0.08 78 1016.7
20260506141804 15 170 14.5 25.7 0.00 0.08 0.08 78 1016.6
20260506140903 16 176 12.9 24.1 0.00 0.08 0.08 72 1016.6
20260506140024 16 163 14.5 30.6 0.00 0.08 0.08 71 1016.5
20260506135404 16 162 16.1 30.6 0.00 0.08 0.08 72 1016.7
20260506134505 16 162 17.7 27.4 0.00 0.08 0.08 69 1016.7
20260506133603 16 167 16.1 29.0 0.00 0.08 0.08 69 1016.6
20260506132705 16 169 11.3 29.0 0.00 0.08 0.08 68 1016.5
20260506131829 16 190 9.7 24.1 0.00 0.08 0.08 66 1016.9
20260506130903 16 180 12.9 24.1 0.00 0.08 0.08 67 1016.7
20260506130005 17 175 11.3 20.9 0.00 0.08 0.08 66 1016.7
20260506125406 17 167 12.9 24.1 0.00 0.08 0.08 67 1016.8
20260506124503 17 176 12.9 24.1 0.00 0.08 0.08 66 1016.8
20260506123625 16 170 14.5 27.4 0.00 0.08 0.08 66 1016.6
20260506122706 17 172 11.3 25.7 0.00 0.08 0.08 67 1016.8
20260506121803 17 161 14.5 32.2 0.00 0.08 0.08 66 1016.9
20260506120911 17 166 16.1 30.6 0.00 0.08 0.08 66 1016.7
20260506120006 17 173 14.5 32.2 0.00 0.08 0.08 65 1016.6
20260506115404 17 175 14.5 32.2 0.00 0.08 0.08 65 1016.6
20260506114524 17 172 14.5 30.6 0.00 0.08 0.08 63 1016.6
20260506113604 17 154 19.3 30.6 0.00 0.08 0.08 65 1016.8
20260506112704 17 171 14.5 35.4 0.00 0.08 0.08 63 1016.8
20260506111804 17 158 16.1 35.4 0.00 0.08 0.08 64 1016.8
20260506110924 17 160 17.7 33.8 0.00 0.08 0.08 63 1016.8
20260506110003 17 148 20.9 33.8 0.00 0.08 0.08 63 1016.6
20260506105403 17 151 17.7 33.8 0.00 0.08 0.08 62 1016.6
20260506104504 17 152 19.3 33.8 0.00 0.08 0.08 61 1016.6